This demonstration page uses our WeatherBlox Daily Observations layout. Learn more.

Left ArrowRight Arrow

Hourly Observations for February 26, 2019

Temp ( °F °C ) Dew Point ( °F °C ) Humidity (%) Winds ( mph kmh ) Pressure ( in mb ) Visibility ( mi km ) Precip ( " mm )
12:15 am 00:15 Cloudy 27 -3 23 -5 86 86 NE 3 6 30.46 1031 10 16 N/A
12:16 am 00:16 Cloudy 27 -3 23 -5 86 86 NE 3 6 30.46 1031 10 16 N/A
12:35 am 00:35 Cloudy 27 -3 23 -5 86 86 NNE 3 6 30.46 1031 10 16 N/A
12:55 am 00:55 Cloudy 27 -3 23 -5 86 86 NE 3 6 30.46 1031 10 16 N/A
1:15 am 01:15 Cloudy 27 -3 23 -5 86 86 N N/A 30.46 1031 10 16 N/A
1:16 am 01:16 Cloudy 27 -3 23 -5 86 86 N N/A 30.46 1031 10 16 N/A
1:35 am 01:35 Cloudy 27 -3 23 -5 86 86 ENE 5 7 30.46 1031 10 16 N/A
1:55 am 01:55 Cloudy 27 -3 23 -5 86 86 ENE 5 7 30.46 1031 10 16 N/A
1:56 am 01:56 Cloudy 27 -3 23 -5 86 86 ENE 5 7 30.46 1031 10 16 N/A
2:15 am 02:15 Cloudy 27 -3 21 -6 80 80 NE 3 6 30.46 1031 10 16 N/A
2:35 am 02:35 Mostly Cloudy 25 -4 23 -5 93 93 NNE 7 11 30.46 1032 10 16 N/A
2:55 am 02:55 Mostly Cloudy 25 -4 23 -5 93 93 NNE 7 11 30.46 1032 10 16 N/A
2:56 am 02:56 Mostly Cloudy 25 -4 23 -5 93 93 NNE 7 11 30.46 1032 10 16 N/A
3:15 am 03:15 Mostly Cloudy 25 -4 23 -5 93 93 NNE 6 9 30.46 1032 10 16 N/A
3:16 am 03:16 Mostly Cloudy 25 -4 23 -5 93 93 NNE 6 9 30.46 1032 10 16 N/A
3:35 am 03:35 Cloudy 25 -4 23 -5 93 93 NE 5 7 30.45 1031 10 16 N/A
3:55 am 03:55 Mostly Cloudy 25 -4 23 -5 93 93 NE 5 7 30.45 1031 10 16 N/A
3:56 am 03:56 Mostly Cloudy 25 -4 23 -5 93 93 NE 5 7 30.45 1031 10 16 N/A
4:15 am 04:15 Partly Cloudy 25 -4 23 -5 93 93 NE 6 9 30.45 1031 10 16 N/A
4:35 am 04:35 Clear 25 -4 23 -5 93 93 NE 5 7 30.45 1031 10 16 N/A
4:55 am 04:55 Clear 23 -5 23 -5 100 100 NNE 7 11 30.46 1032 10 16 N/A
4:56 am 04:56 Clear 23 -5 23 -5 100 100 NNE 7 11 30.46 1032 10 16 N/A
5:15 am 05:15 Clear 23 -5 21 -6 93 93 NE 6 9 30.46 1032 10 16 N/A
5:36 am 05:36 Clear 23 -5 23 -5 100 100 NNE 7 11 30.46 1032 10 16 N/A
5:55 am 05:55 Clear 25 -4 23 -5 93 93 NE 6 9 30.47 1032 10 16 N/A
5:56 am 05:56 Clear 25 -4 23 -5 93 93 NE 6 9 30.47 1032 10 16 N/A
6:15 am 06:15 Clear 25 -4 23 -5 93 93 NE 6 9 30.47 1032 10 16 N/A
6:35 am 06:35 Clear 25 -4 23 -5 93 93 NE 6 9 30.47 1032 10 16 N/A
6:36 am 06:36 Clear 25 -4 23 -5 93 93 NE 6 9 30.47 1032 10 16 N/A
6:55 am 06:55 Clear 23 -5 23 -5 100 100 NE 5 7 30.47 1032 10 16 N/A
6:56 am 06:56 Clear 23 -5 23 -5 100 100 NE 6 9 30.47 1032 10 16 N/A
7:15 am 07:15 Clear 23 -5 21 -6 93 93 ENE 3 6 30.47 1032 10 16 N/A
7:35 am 07:35 Sunny 23 -5 23 -5 100 100 ENE 5 7 30.47 1032 10 16 N/A
7:36 am 07:36 Sunny 23 -5 23 -5 100 100 ENE 5 7 30.47 1032 10 16 N/A
7:55 am 07:55 Sunny 25 -4 23 -5 93 93 NE 3 6 30.47 1032 10 16 N/A
8:15 am 08:15 Sunny 25 -4 23 -5 93 93 ENE 5 7 30.48 1032 10 16 N/A
8:35 am 08:35 Sunny 27 -3 25 -4 93 93 E 5 7 30.48 1032 10 16 N/A
8:36 am 08:36 Sunny 27 -3 25 -4 93 93 E 6 9 30.48 1032 10 16 N/A
8:55 am 08:55 Sunny 28 -2 25 -4 86 86 E 8 13 30.48 1032 10 16 N/A
9:15 am 09:15 Sunny 30 -1 25 -4 80 80 ENE 9 15 30.48 1032 10 16 N/A
9:35 am 09:35 Sunny 30 -1 23 -5 75 75 NE 10 17 30.49 1032 10 16 N/A
9:36 am 09:36 Sunny 30 -1 23 -5 75 75 NE 10 17 30.49 1032 10 16 N/A
9:55 am 09:55 Sunny 30 -1 23 -5 75 75 NE 9 15 30.48 1032 10 16 N/A
10:16 am 10:16 Sunny 32 undefined 23 -5 69 69 E 9 15 30.49 1032 10 16 N/A
10:35 am 10:35 Sunny 32 undefined 25 -4 75 75 ENE 7 11 30.48 1032 10 16 N/A
10:36 am 10:36 Sunny 32 undefined 25 -4 75 75 E 7 11 30.48 1032 10 16 N/A
10:55 am 10:55 Sunny 32 undefined 23 -5 69 69 ENE 8 13 30.47 1032 10 16 N/A
11:15 am 11:15 Sunny 32 undefined 23 -5 69 69 ENE 8 13 30.47 1032 10 16 N/A
11:16 am 11:16 Sunny 32 undefined 23 -5 69 69 ENE 9 15 30.47 1032 10 16 N/A
11:35 am 11:35 Sunny 34 1 25 -4 70 70 ENE 9 15 30.46 1032 10 16 N/A
11:55 am 11:55 Sunny 34 1 25 -4 70 70 E 9 15 30.46 1032 10 16 N/A
12:15 pm 12:15 Sunny 36 2 25 -4 65 65 ENE 8 13 30.45 1031 10 16 N/A
12:16 pm 12:16 Sunny 36 2 25 -4 65 65 E 9 15 30.45 1031 10 16 N/A
12:35 pm 12:35 Sunny 36 2 27 -3 70 70 ENE 10 17 30.44 1031 10 16 N/A
12:36 pm 12:36 Sunny 36 2 27 -3 70 70 NE 10 17 30.44 1031 10 16 N/A
12:55 pm 12:55 Sunny 37 3 27 -3 65 65 ENE 9 15 30.43 1030 10 16 N/A
1:15 pm 13:15 Sunny 37 3 27 -3 65 65 E 10 17 30.41 1030 10 16 N/A
1:16 pm 13:16 Sunny 37 3 27 -3 65 65 E 8 13 30.41 1030 10 16 N/A
1:35 pm 13:35 Sunny 37 3 27 -3 65 65 ENE 8 13 30.41 1030 10 16 N/A
1:36 pm 13:36 Sunny 37 3 27 -3 65 65 ENE 9 15 30.40 1030 10 16 N/A
1:55 pm 13:55 Sunny 39 4 27 -3 61 61 NE 8 13 30.39 1029 10 16 N/A
2:15 pm 14:15 Sunny 39 4 27 -3 61 61 ENE 7 11 30.39 1029 10 16 N/A
2:16 pm 14:16 Sunny 39 4 27 -3 61 61 ENE 6 9 30.39 1029 10 16 N/A
2:35 pm 14:35 Sunny 39 4 27 -3 61 61 ENE 7 11 30.39 1029 10 16 N/A
2:56 pm 14:56 Sunny 39 4 28 -2 65 65 NE 8 13 30.39 1029 10 16 N/A
3:15 pm 15:15 Sunny 39 4 28 -2 65 65 ENE 10 17 30.37 1028 10 16 N/A
3:35 pm 15:35 Sunny 41 5 28 -2 61 61 ENE 7 11 30.36 1028 10 16 N/A
3:55 pm 15:55 Sunny 41 5 28 -2 61 61 E 6 9 30.36 1028 10 16 N/A
3:56 pm 15:56 Sunny 41 5 28 -2 61 61 E 9 15 30.36 1028 10 16 N/A
4:15 pm 16:15 Sunny 41 5 30 -1 66 66 NE 7 11 30.35 1028 10 16 N/A
4:35 pm 16:35 Sunny 41 5 30 -1 66 66 ENE 8 13 30.35 1028 10 16 N/A
4:55 pm 16:55 Sunny 39 4 30 -1 70 70 ENE 10 17 30.35 1028 10 16 N/A
5:15 pm 17:15 Sunny 39 4 30 -1 70 70 NE 13 20 30.35 1028 10 16 N/A
5:35 pm 17:35 Sunny 37 3 30 -1 75 75 NE 12 19 30.35 1028 10 16 N/A
5:55 pm 17:55 Sunny 36 2 28 -2 75 75 ENE 13 20 30.35 1028 10 16 N/A
5:56 pm 17:56 Sunny 36 2 28 -2 75 75 ENE 14 22 30.34 1027 10 16 N/A
6:15 pm 18:15 Sunny 34 1 28 -2 81 81 E 12 19 30.34 1027 10 16 N/A
6:35 pm 18:35 Clear 32 undefined 28 -2 87 87 ENE 9 15 30.34 1027 10 16 N/A
6:55 pm 18:55 Clear 32 undefined 28 -2 87 87 ENE 8 13 30.35 1028 10 16 N/A
6:56 pm 18:56 Clear 32 undefined 28 -2 87 87 ENE 8 13 30.35 1028 10 16 N/A
7:15 pm 19:15 Clear 32 undefined 28 -2 87 87 ENE 9 15 30.35 1028 10 16 N/A
7:35 pm 19:35 Clear 30 -1 28 -2 93 93 NE 6 9 30.36 1028 10 16 N/A
7:55 pm 19:55 Clear 30 -1 28 -2 93 93 NE 7 11 30.36 1028 10 16 N/A
7:56 pm 19:56 Clear 30 -1 28 -2 93 93 NE 7 11 30.36 1028 10 16 N/A
8:15 pm 20:15 Clear 30 -1 28 -2 93 93 NNE 9 15 30.36 1028 10 16 N/A
8:36 pm 20:36 Clear 30 -1 28 -2 93 93 ENE 8 13 30.34 1027 10 16 N/A
8:55 pm 20:55 Clear 28 -2 27 -3 93 93 E 8 13 30.33 1027 10 16 N/A
8:56 pm 20:56 Clear 28 -2 27 -3 93 93 E 8 13 30.33 1027 10 16 N/A
9:15 pm 21:15 Clear 28 -2 27 -3 93 93 ENE 8 13 30.33 1027 10 16 N/A
9:36 pm 21:36 Clear 28 -2 27 -3 93 93 ENE 8 13 30.33 1027 10 16 N/A
9:55 pm 21:55 Clear 28 -2 27 -3 93 93 ENE 8 13 30.33 1027 10 16 N/A
9:56 pm 21:56 Clear 28 -2 27 -3 93 93 ENE 8 13 30.33 1027 10 16 N/A
10:15 pm 22:15 Clear 28 -2 27 -3 93 93 ENE 6 9 30.33 1027 10 16 N/A
10:36 pm 22:36 Clear 27 -3 27 -3 100 100 ENE 7 11 30.33 1027 10 16 N/A
10:55 pm 22:55 Clear 27 -3 27 -3 100 100 ENE 6 9 30.33 1027 10 16 N/A
10:56 pm 22:56 Clear 27 -3 27 -3 100 100 ENE 6 9 30.33 1027 10 16 N/A
11:15 pm 23:15 Clear 27 -3 27 -3 100 100 ENE 6 9 30.33 1027 10 16 N/A
11:36 pm 23:36 Clear 27 -3 27 -3 100 100 ENE 7 11 30.32 1027 10 16 N/A
11:55 pm 23:55 Clear 27 -3 27 -3 100 100 ENE 6 9 30.31 1026 10 16 N/A
11:56 pm 23:56 Clear 27 -3 27 -3 100 100 ENE 6 9 30.31 1026 10 16 N/A

Powered by AerisWeather